762  
ASUS41 KLWX 151911  
RWRLWX  
 
REGIONAL WEATHER ROUNDUP  
NATIONAL WEATHER SERVICE BALTIMORE MD/WASHINGTON DC  
300 PM EDT MON OCT 15 2018  
 
NOTE: "FAIR" INDICATES FEW OR NO CLOUDS BELOW 12,000 FEET  
WITH NO SIGNIFICANT WEATHER AND/OR S TO VISIBILITY
.  
TC=TEMPERATURE CELSIUS  
 
* =NON NWS SITE. STATION DOES NOT REPORT PRECIPITATION (E.G. RAIN,  
SNOW, ETC.), THUNDER, OR FOG.
 
 
DCZ001-MDZ009-015-VAZ040>042-051-053>054-152000-  
WASHINGTON METRO  
 
CITY SKY/WX TMP DP RH WIND PRES REMARKS
 
WASHINGTON NAT CLOUDY 68 63 84 S7 30.03F  
DULLES CLOUDY 63 62 97 S7 30.01F  
ANDREWS AFB FAIR 69 62 78 SW9 30.01F  
FT BELVOIR FAIR 68 66 93 S5 30.01F  
QUANTICO PTSUNNY 71 65 81 SW14 30.04F  
COLLEGE PARK* CLOUDY 65 62 88 CALM 30.01F  
LEESBURG* LGT RAIN 61 61 100 S3 30.01F  
MANASSAS* CLOUDY 66 62 87 CALM 30.02F  
GAITHERSBURG* LGT RAIN 64 62 93 VRB6 30.02F  
 

 
 
MDZ006>007-011-014-152000-  
BALTIMORE METRO  
 
CITY SKY/WX TMP DP RH WIND PRES REMARKS
 
BWI AIRPORT PTSUNNY 65 63 93 SW7 30.00F  
MD SCIENCE CTR N/A 67 65 93 MISG 30.00F  
MARTIN STATE LGT RAIN 66 66 100 SE3 30.01F  
ANNAPOLIS FAIR 71 61 70 S8 30.01F  
FORT MEADE* PTSUNNY 64 63 94 SW6 30.03F  
 

 
 
MDZ012-015-019>023-152000-  
MARYLAND EASTERN SHORE  
 
CITY SKY/WX TMP DP RH WIND PRES REMARKS
 
OCEAN CITY PTSUNNY 78 66 66 SW16G23 30.06S  
SALISBURY PTSUNNY 77 68 73 W13 30.05F  
BAY BRIDGE AP* FAIR 70 64 83 S8 30.02F  
CAMBRIDGE* MOSUNNY 75 66 73 S6G17 30.03F  
EASTON* PTSUNNY 72 66 83 SW9 30.07F  
 

 
 
MDZ017>025-152000-  
SOUTHERN MARYLAND  
 
CITY SKY/WX TMP DP RH WIND PRES REMARKS
 
PATUXENT RIVER PTSUNNY 74 65 73 SW10 30.04F  
ST INIGOES PTSUNNY 78 66 66 SW7 30.04F  
LEONARDTOWN* CLOUDY 73 64 73 SW9 30.04F  
 

 
 
MDZ003>005-152000-  
NORTH CENTRAL MARYLAND  
 
CITY SKY/WX TMP DP RH WIND PRES REMARKS
 
FREDERICK* LGT RAIN 64 63 94 S7 30.03F  
HAGERSTOWN APT LGT RAIN 64 60 87 S12 29.97F  
WESTMINSTER* LGT RAIN 64 61 88 S5 29.99F  
 

 
 
MDZ501>502-152000-  
WESTERN MARYLAND  
 
CITY SKY/WX TMP DP RH WIND PRES REMARKS
 
OAKLAND* CLOUDY 55 55 100 SW15G24 30.01F  
CUMBERLAND* PTSUNNY 58 56 91 CALM 29.99F  
 

 
 
VAZ025>031-152000-  
SHENANDOAH VALLEY  
 
CITY SKY/WX TMP DP RH WIND PRES REMARKS
 
WINCHESTER* LGT RAIN 63 61 94 SW5 30.00F  
FRONT ROYAL* CLOUDY N/A N/A N/A SW6 29.99F  
LURAY* FAIR 70 63 78 SW7 30.01F  
NEW MARKET* FAIR 71 61 71 SW7 29.99F  
STAUNTON* FAIR 70 60 70 SW10G17 30.07F  
WAYNESBORO* CLOUDY 71 61 70 SW10G17 30.07F  
 

 
 
WVZ021-048>050-054>055-152000-  
EASTERN WEST VIRGINIA PANHANDLE  
 
CITY SKY/WX TMP DP RH WIND PRES REMARKS
 
MARTINSBURG LGT RAIN 64 62 93 S7 29.97F  
PETERSBURG* FAIR 74 59 59 SW18G25 29.98S  
 

 
 
VAZ036>039-050-152000-  
CENTRAL FOOTHILLS  
 
CITY SKY/WX TMP DP RH WIND PRES REMARKS
 
CHARLOTTESVILL PTSUNNY 72 62 71 S12 30.04F  
CULPEPER* CLOUDY 70 62 76 S7 30.03F  
ORANGE* CLOUDY 70 63 78 S6 30.03F  
GORDONSVILLE* PTSUNNY 71 66 84 SW8 30.04F  
WARRENTON* DRIZZLE 69 61 75 S3 30.01F  
 

 
 
VAZ055>057-152000-  
NORTH AND CENTRAL PIEDMONT  
 
CITY SKY/WX TMP DP RH WIND PRES REMARKS
 
FREDERICKSBRG* PTSUNNY 71 65 80 SW5 30.02F  
STAFFORD* FAIR 70 65 84 SW6 30.07F  
 

 
 
NCZ024-NYZ072-PAZ021-071-VAZ022-071-152000-  
OTHER REGIONAL OBSERVATIONS  
 
CITY SKY/WX TMP DP RH WIND PRES REMARKS
 
NEW YORK CITY CLOUDY 64 60 87 MISG 29.99F  
PHILADELPHIA CLOUDY 66 62 87 SW12 30.00S  
PITTSBURGH LGT RAIN 58 57 97 W13 29.95R  
ROANOKE PTSUNNY 74 62 66 SW3 30.11F  
RICHMOND PTSUNNY 80 65 59 SW17 30.06F  
RALEIGH PTSUNNY 77 66 68 SW13 30.12F  
 

 
 
ANZ530>537-152000-  
MARINE OBSERVATIONS  
 
STATION/POSITION TIME TEMP WIND PRES
 
AIR SEA DIR/SP/G  
(UTC) (F) (DEG/KT/KT) (MB)  
THOMAS PT LIGHT 1900 69 69 200/ 11/ 11 1017.2F  
BALT KEY BRIDGE 1836 67 180/ 7/ 9 1015.8F  
COVE POINT 1836 74 220/ 16/ 19 1017.8F  
LEWISETTA 1836 78 69 250/ 14/ 18 1017.2F  
SOLOMONS ISLAND 1836 74 72 230/ 16/ 18 1017.1F  
PINEY POINT 1836 290/ 4/ 6 N/A  
 

 
 
 
 
CLICK HERE TO GO TO PREVIOUS BULLETINS.

The Nexlab VA Page
The Nexlab MD Page
The Nexlab WV Page Main Text Page